When you browse on this site, cookies collect data to enhance your experience and personalize the content and advertising you see.
Visit our Privacy Policy to learn more. By continuing to use the site, you agree to this use of cookies and data.
  • In Sweden
  • List of Countries
  • For 7 days
  • Water Temperature
  • Satellite Maps
  • Weather Map
  • Weather Widgets
  • user-avatar
    Login

    Hourly Weather Coeur d'Alene

    Today, 23 May, Thursday

    Time Temperature Precipitation Wind Pressure Humidity
    00:00 +10°C° 0 mm 1 mps 704 mmHg 67%
    01:00 +10°C° 0 mm 1 mps 704 mmHg 70%
    02:00 +9°C° 0 mm 1 mps 704 mmHg 73%
    03:00 +9°C° 0 mm 1 mps 704 mmHg 76%
    04:00 +8°C° 0 mm 1 mps 704 mmHg 78%
    05:00 +11°C° 0 mm 1 mps 704 mmHg 71%
    06:00 +13°C° 0 mm 2 mps 703 mmHg 64%
    07:00 +15°C° 0 mm 2 mps 703 mmHg 57%
    08:00 +18°C° 0 mm 2 mps 703 mmHg 49%
    09:00 +20°C° 0 mm 2 mps 703 mmHg 41%
    10:00 +23°C° 0 mm 2 mps 702 mmHg 33%
    11:00 +24°C° 0 mm 2 mps 702 mmHg 32%
    12:00 +24°C° 0 mm 2 mps 701 mmHg 32%
    13:00 +24°C° 0 mm 1 mps 700 mmHg 31%
    14:00 +24°C° 0 mm 1 mps 700 mmHg 31%
    15:00 +24°C° 0 mm 1 mps 699 mmHg 32%
    16:00 +24°C° 0 mm 2 mps 699 mmHg 33%
    17:00 +22°C° 0 mm 1 mps 698 mmHg 40%
    18:00 +20°C° 0 mm 1 mps 698 mmHg 47%
    19:00 +18°C° 0 mm 1 mps 697 mmHg 54%
    20:00 +15°C° 0 mm 1 mps 697 mmHg 58%
    21:00 +13°C° 0 mm 0 mps 697 mmHg 61%
    22:00 +11°C° 0 mm 0 mps 697 mmHg 65%
    23:00 +10°C° 0.1 mm 0 mps 697 mmHg 68%

    Tomorrow, 24 May, Friday

    Time Temperature Precipitation Wind Pressure Humidity
    00:00 +10°C° 0.1 mm 0 mps 696 mmHg 72%
    01:00 +10°C° 0.1 mm 1 mps 696 mmHg 76%
    02:00 +9°C° 0.2 mm 1 mps 696 mmHg 80%
    03:00 +9°C° 0.2 mm 1 mps 696 mmHg 84%
    04:00 +9°C° 0.2 mm 1 mps 696 mmHg 88%
    05:00 +10°C° 0.3 mm 1 mps 696 mmHg 85%
    06:00 +12°C° 0.3 mm 2 mps 696 mmHg 82%
    07:00 +13°C° 0.3 mm 2 mps 697 mmHg 79%
    08:00 +14°C° 0.3 mm 2 mps 697 mmHg 80%
    09:00 +14°C° 0.3 mm 2 mps 696 mmHg 81%
    10:00 +13°C° 0.3 mm 3 mps 696 mmHg 83%
    11:00 +14°C° 0 mm 3 mps 697 mmHg 74%
    12:00 +17°C° 0 mm 3 mps 697 mmHg 66%
    13:00 +18°C° 0 mm 3 mps 697 mmHg 58%
    14:00 +18°C° 0.5 mm 3 mps 697 mmHg 65%
    15:00 +17°C° 0.5 mm 2 mps 697 mmHg 72%
    16:00 +17°C° 0.5 mm 2 mps 696 mmHg 79%
    17:00 +16°C° 0.8 mm 2 mps 697 mmHg 84%
    18:00 +14°C° 0.8 mm 2 mps 697 mmHg 88%
    19:00 +13°C° 0.8 mm 2 mps 697 mmHg 93%
    20:00 +12°C° 0.2 mm 2 mps 697 mmHg 93%
    21:00 +10°C° 0.2 mm 2 mps 698 mmHg 93%
    22:00 +10°C° 0.2 mm 1 mps 698 mmHg 93%
    23:00 +9°C° 0 mm 1 mps 698 mmHg 93%

    Day after tomorrow, 25 May, Saturday

    Time Temperature Precipitation Wind Pressure Humidity
    00:00 +8°C° 0 mm 1 mps 698 mmHg 93%
    01:00 +7°C° 0 mm 1 mps 698 mmHg 93%
    02:00 +6°C° 0 mm 1 mps 698 mmHg 93%
    03:00 +5°C° 0 mm 0 mps 698 mmHg 92%
    04:00 +4°C° 0 mm 0 mps 698 mmHg 92%
    05:00 +6°C° 0 mm 0 mps 699 mmHg 86%
    06:00 +8°C° 0 mm 0 mps 699 mmHg 81%
    07:00 +10°C° 0 mm 0 mps 700 mmHg 75%
    08:00 +12°C° 0 mm 0 mps 700 mmHg 66%
    09:00 +14°C° 0 mm 0 mps 700 mmHg 57%
    10:00 +16°C° 0 mm 0 mps 700 mmHg 48%
    11:00 +19°C° 0 mm 1 mps 700 mmHg 46%
    12:00 +20°C° 0 mm 1 mps 699 mmHg 44%
    13:00 +21°C° 0 mm 1 mps 699 mmHg 42%
    14:00 +20°C° 0 mm 1 mps 699 mmHg 44%
    15:00 +19°C° 0 mm 2 mps 698 mmHg 46%
    16:00 +19°C° 0 mm 2 mps 698 mmHg 48%
    17:00 +18°C° 0.1 mm 1 mps 698 mmHg 56%
    18:00 +16°C° 0.1 mm 1 mps 698 mmHg 64%
    19:00 +14°C° 0.1 mm 1 mps 698 mmHg 72%
    20:00 +13°C° 1.7 mm 1 mps 697 mmHg 80%
    21:00 +12°C° 1.7 mm 1 mps 697 mmHg 87%
    22:00 +11°C° 1.7 mm 1 mps 697 mmHg 95%
    23:00 +11°C° 1.9 mm 1 mps 697 mmHg 96%

    26 May, Sunday

    Time Temperature Precipitation Wind Pressure Humidity
    00:00 +11°C° 1.9 mm 1 mps 697 mmHg 97%
    01:00 +10°C° 1.9 mm 0 mps 697 mmHg 98%
    02:00 +11°C° 2.6 mm 1 mps 697 mmHg 98%
    03:00 +11°C° 2.6 mm 1 mps 698 mmHg 98%
    04:00 +11°C° 2.6 mm 1 mps 698 mmHg 97%
    05:00 +11°C° 0.1 mm 1 mps 698 mmHg 95%
    06:00 +12°C° 0.1 mm 1 mps 699 mmHg 93%
    07:00 +13°C° 0.1 mm 1 mps 699 mmHg 91%
    08:00 +14°C° 0 mm 1 mps 699 mmHg 82%
    09:00 +15°C° 0 mm 2 mps 700 mmHg 72%
    10:00 +16°C° 0 mm 2 mps 700 mmHg 62%
    11:00 +17°C° 0 mm 3 mps 700 mmHg 57%
    12:00 +18°C° 0 mm 3 mps 700 mmHg 51%
    13:00 +20°C° 0 mm 4 mps 701 mmHg 46%
    14:00 +20°C° 0 mm 4 mps 700 mmHg 46%
    15:00 +20°C° 0 mm 4 mps 700 mmHg 45%
    16:00 +20°C° 0 mm 4 mps 700 mmHg 45%
    17:00 +18°C° 0 mm 3 mps 700 mmHg 51%
    18:00 +17°C° 0 mm 3 mps 700 mmHg 58%
    19:00 +15°C° 0 mm 2 mps 700 mmHg 65%
    20:00 +13°C° 0 mm 2 mps 700 mmHg 70%
    21:00 +12°C° 0 mm 2 mps 700 mmHg 74%
    22:00 +9°C° 0 mm 2 mps 700 mmHg 78%
    23:00 +8°C° 0 mm 2 mps 700 mmHg 80%

    27 May, Monday

    Time Temperature Precipitation Wind Pressure Humidity
    00:00 +8°C° 0 mm 2 mps 700 mmHg 82%
    01:00 +8°C° 0 mm 1 mps 700 mmHg 84%
    02:00 +8°C° 0 mm 1 mps 700 mmHg 85%
    03:00 +7°C° 0 mm 1 mps 700 mmHg 87%
    04:00 +7°C° 0 mm 1 mps 700 mmHg 88%
    05:00 +9°C° 0 mm 1 mps 701 mmHg 78%
    06:00 +12°C° 0 mm 1 mps 701 mmHg 67%
    07:00 +14°C° 0 mm 1 mps 701 mmHg 57%
    08:00 +18°C° 0 mm 1 mps 701 mmHg 51%
    09:00 +19°C° 0 mm 0 mps 701 mmHg 46%
    10:00 +22°C° 0 mm 0 mps 701 mmHg 40%
    11:00 +24°C° 0 mm 1 mps 701 mmHg 39%
    12:00 +24°C° 0 mm 1 mps 701 mmHg 39%
    13:00 +24°C° 0 mm 2 mps 700 mmHg 38%
    14:00 +24°C° 0 mm 2 mps 700 mmHg 39%
    15:00 +24°C° 0 mm 2 mps 700 mmHg 40%
    16:00 +24°C° 0 mm 2 mps 699 mmHg 41%
    17:00 +21°C° 0 mm 2 mps 699 mmHg 49%
    18:00 +19°C° 0 mm 2 mps 699 mmHg 56%
    19:00 +18°C° 0 mm 2 mps 699 mmHg 64%
    20:00 +16°C° 0 mm 1 mps 699 mmHg 69%
    21:00 +14°C° 0 mm 1 mps 699 mmHg 75%
    22:00 +12°C° 0 mm 1 mps 699 mmHg 81%
    23:00 +12°C° 0.1 mm 1 mps 699 mmHg 84%

    28 May, Tuesday

    Time Temperature Precipitation Wind Pressure Humidity
    00:00 +11°C° 0.1 mm 1 mps 699 mmHg 87%
    01:00 +10°C° 0.1 mm 1 mps 699 mmHg 90%
    02:00 +10°C° 0.2 mm 1 mps 699 mmHg 91%
    03:00 +10°C° 0.2 mm 1 mps 699 mmHg 93%
    04:00 +9°C° 0.2 mm 1 mps 699 mmHg 94%
    05:00 +11°C° 0 mm 1 mps 700 mmHg 89%
    06:00 +13°C° 0 mm 2 mps 700 mmHg 84%
    07:00 +15°C° 0 mm 2 mps 700 mmHg 80%
    08:00 +16°C° 0 mm 2 mps 700 mmHg 77%
    09:00 +16°C° 0 mm 2 mps 700 mmHg 74%
    10:00 +17°C° 0 mm 2 mps 700 mmHg 71%
    11:00 +18°C° 0 mm 2 mps 699 mmHg 67%
    12:00 +19°C° 0 mm 2 mps 699 mmHg 63%
    13:00 +20°C° 0 mm 2 mps 699 mmHg 59%
    14:00 +20°C° 0.6 mm 2 mps 699 mmHg 63%
    15:00 +20°C° 0.6 mm 2 mps 698 mmHg 67%
    16:00 +20°C° 0.6 mm 2 mps 698 mmHg 72%
    17:00 +19°C° 0.5 mm 2 mps 698 mmHg 76%
    18:00 +18°C° 0.5 mm 2 mps 697 mmHg 80%
    19:00 +16°C° 0.5 mm 1 mps 697 mmHg 85%
    20:00 +15°C° 0 mm 1 mps 697 mmHg 86%
    21:00 +13°C° 0 mm 1 mps 697 mmHg 88%
    22:00 +12°C° 0 mm 1 mps 697 mmHg 89%
    23:00 +11°C° 0 mm 1 mps 697 mmHg 90%
    Show more